User: anonymous   Login
Location: Unspecified
(0.0000°N, 0.0000°E)
Time: 23:32:10
(UTC+00:00)
Language:

APRIZESAT 4 - Orbit

View from above orbital plane
View from above orbital plane
View from above satellite
View from above satellite

Ground track
Ground track

The orbit is defined by the following mean orbital elements,

1 35684U          26145.46492903 +.00000000 +00000-0 +85353-4 0 00002
2 35684  98.1414 220.3329 0044061  36.8975 323.5256 14.83841705    06
Epoch (UTC): 25 May 2026 11:09:29
Eccentricity: 0.0044061
inclination: 98.1414°
perigee height: 586 km
apogee height: 648 km
right ascension of ascending node: 220.3329°
argument of perigee: 36.8975°
revolutions per day: 14.83841705
mean anomaly at epoch: 323.5256°

The dashed part of the orbit path shows where the satellite is in the earth's shadow,  

DLR